Temperature
17 16 16 16 15 15 14 14 14 13 13 13 13 13 13 13 13 13 13 13 12 12 12 12 11 11 10 10 10 10 11 11 12 12 11 12 12 12 12 11 11 11 11
16 16 16 15 15 15 14 14 14 13 13 13 13 13 13 13 13 13 13 13 13 12 12 12 11 10 10 10 10 10 11 10 10 10 10 10 11 11 11 11 11 10 10
16 15 15 15 15 14 14 13 13 13 13 13 13 12 12 12 12 13 12 12 12 12 12 12 11 11 10 10 10 10 10 10 10 10 10 10 10 10 10 10 10 10 10
15 14 14 14 14 13 13 13 12 12 12 12 12 12 12 12 12 12 12 12 12 12 12 12 12 11 11 10 10 10 10 10 10 10 10 10 10 10 10 10 10 10 10
14 14 13 13 13 12 12 12 12 12 12 12 12 12 12 12 12 12 12 12 12 12 12 12 12 12 11 11 10 10 10 10 10 10 10 10 10 10 10 10 10 10 10
14 13 13 13 13 12 12 12 12 12 12 12 12 12 12 12 12 12 12 12 12 12 12 12 12 12 12 12 11 11 10 10 10 10 10 10 10 10 10 10 10 10 10
13 13 13 12 12 12 12 12 12 12 12 12 11 12 12 12 12 13 13 13 13 13 12 12 12 12 12 12 11 11 11 11 10 10 9 9 9 9 10 10 10 10 10
13 12 12 12 12 11 11 11 11 11 11 11 10 10 10 10 11 12 12 12 12 12 12 12 12 12 12 12 12 12 12 12 11 11 10 10 9 9 9 9 9 9 9
12 11 11 11 11 11 11 10 10 10 9 10 9 9 10 10 10 11 11 11 12 12 12 12 12 12 12 12 12 12 12 12 12 12 11 11 10 10 9 10 10 10 10
11 11 11 11 11 10 10 10 10 9 9 9 9 9 9 9 9 9 10 10 11 11 11 11 11 11 11 11 11 11 12 12 12 12 12 11 11 10 10 10 10 10 10
11 11 11 10 10 10 9 9 9 9 8 8 8 8 8 8 8 7 8 8 8 9 9 9 9 10 10 10 10 11 11 11 11 11 11 11 11 10 10 10 10 10 10
11 10 10 9 9 8 8 8 8 8 7 7 7 7 6 5 5 5 5 6 6 7 7 8 8 9 9 9 9 10 10 10 10 10 10 10 10 10 10 10 10 10 10
10 9 9 8 8 7 7 7 6 6 6 6 5 5 5 4 4 4 3 4 4 5 6 6 7 8 8 8 8 8 9 9 9 9 9 9 10 10 10 10 10 10 10
8 7 7 7 7 6 6 6 5 5 4 4 4 4 3 3 3 2 2 2 3 4 5 5 6 6 6 7 7 7 8 8 8 8 9 9 9 10 10 10 10 10 10
6 6 6 6 6 6 5 5 5 4 3 3 2 2 2 1 1 1 1 1 1 1 2 3 4 4 4 5 5 6 6 7 7 8 8 8 9 9 9 9 9 10 10
5 5 5 5 5 5 5 4 4 3 2 2 1 1 0 0 0 0 0 0 -0 -0 0 1 2 2 2 3 3 4 5 5 6 7 7 7 8 8 9 9 9 9 9
5 5 5 5 4 4 4 3 3 2 1 0 -1 -1 -1 -1 -1 -1 -1 -1 -1 -1 -1 -0 0 1 1 2 2 3 3 4 5 6 6 7 7 8 8 8 8 9 9
4 4 4 4 4 3 3 2 1 1 -0 -2 -2 -3 -3 -3 -2 -2 -2 -2 -2 -2 -2 -2 -2 -1 -0 0 1 1 2 2 3 4 5 6 6 7 7 8 8 8 8
4 4 3 3 3 2 2 1 0 -0 -1 -3 -3 -4 -4 -4 -3 -3 -4 -4 -3 -3 -3 -4 -3 -3 -2 -2 -1 -0 1 1 2 3 4 5 5 6 6 7 7 7 7
3 3 2 2 2 1 1 0 -1 -1 -2 -3 -4 -4 -4 -4 -5 -5 -5 -4 -5 -5 -5 -5 -4 -4 -3 -3 -3 -2 -1 -0 1 1 2 3 4 5 6 6 7 7 7
2 2 1 1 1 0 -1 -2 -3 -3 -4 -4 -4 -4 -4 -5 -5 -5 -5 -5 -5 -5 -5 -5 -5 -5 -4 -4 -3 -3 -2 -2 -1 -0 1 2 3 4 4 5 6 6 7
1 1 0 -0 -1 -1 -2 -3 -4 -5 -5 -5 -5 -5 -5 -6 -6 -6 -6 -6 -6 -6 -6 -6 -5 -5 -5 -5 -4 -3 -3 -2 -1 -0 0 1 1 2 3 4 5 6 6
0 -0 -1 -2 -2 -3 -3 -4 -5 -6 -6 -6 -6 -6 -7 -7 -7 -7 -7 -6 -6 -6 -6 -6 -6 -5 -5 -4 -4 -3 -3 -2 -1 -1 -0 -0 1 1 3 4 4 5 5
-1 -2 -2 -3 -3 -4 -4 -6 -7 -7 -7 -7 -7 -7 -7 -7 -7 -7 -7 -7 -7 -7 -7 -6 -6 -5 -5 -4 -3 -3 -2 -2 -1 -1 -0 0 1 2 3 3 4 4 5
-3 -3 -3 -4 -4 -4 -5 -7 -8 -8 -8 -7 -7 -7 -7 -7 -7 -7 -7 -7 -7 -7 -7 -7 -6 -5 -5 -4 -4 -3 -3 -2 -1 -0 0 1 1 2 2 3 4 4 4
-4 -4 -4 -4 -5 -6 -7 -8 -8 -8 -8 -8 -8 -8 -8 -8 -7 -7 -7 -7 -8 -8 -7 -7 -6 -6 -5 -5 -4 -4 -3 -2 -2 -1 0 1 1 2 2 3 3 3 3
Wind_Speed
6 4 4 6 7 9 7 6 7 7 8 8 10 10 9 11 13 14 15 21 24 25 27 30 30 30 30 30 30 30 30 30 29 29 29 29 28 28 28 27 27 27 26
5 6 6 5 6 8 9 8 8 9 9 8 10 10 11 11 12 14 16 18 24 27 28 29 31 32 32 33 33 33 33 33 33 32 32 31 31 30 30 30 29 29 29
8 5 6 7 7 10 9 8 7 6 9 9 12 12 11 11 12 13 15 16 18 23 28 30 32 33 34 35 35 35 35 34 34 35 35 34 34 33 32 32 32 31 31
10 5 7 9 7 7 5 7 7 7 10 10 11 11 11 11 13 13 13 15 15 17 22 30 32 34 35 36 37 37 37 35 33 33 34 35 35 35 35 34 34 33 33
10 7 8 8 7 5 6 8 8 7 10 11 11 12 11 11 13 14 15 15 15 17 18 24 29 32 35 37 37 38 38 37 33 32 33 34 35 36 37 37 36 35 35
8 6 7 8 7 7 7 8 11 10 11 12 13 13 12 12 12 13 15 15 15 16 18 19 19 21 30 35 36 37 38 38 36 35 34 33 33 35 37 37 37 37 37
5 3 4 6 6 6 8 9 9 11 11 9 8 11 12 13 14 14 14 15 16 17 15 16 15 15 15 26 32 34 35 36 36 36 36 35 35 36 37 37 37 37 37
11 8 8 7 7 6 7 8 8 7 7 6 5 7 8 7 9 12 12 13 15 14 16 18 18 17 14 12 17 29 32 33 34 34 35 35 36 37 37 37 37 37 37
12 10 9 8 8 7 7 8 8 8 8 7 6 7 9 9 6 6 9 12 14 13 14 14 17 18 18 14 14 20 28 32 34 34 34 34 35 35 36 37 37 37 37
10 11 9 8 8 7 8 8 9 7 8 8 7 6 9 10 12 10 6 7 10 12 14 13 14 16 17 16 17 21 26 31 35 35 35 35 35 35 36 36 37 37 36
8 11 9 8 9 8 8 9 9 9 6 7 7 8 9 10 9 12 15 10 8 8 10 12 13 13 15 16 16 20 27 33 36 36 36 35 35 35 36 36 36 36 36
7 10 9 9 9 8 9 9 9 9 8 8 7 7 7 7 10 10 14 16 14 10 10 10 10 11 12 13 17 23 26 32 36 37 37 37 36 35 36 36 36 36 35
6 10 9 9 9 9 9 9 9 9 9 9 8 8 7 7 8 10 13 15 18 14 11 9 9 9 10 9 11 18 22 28 33 37 38 39 37 34 34 36 36 36 35
6 9 10 10 10 10 11 10 8 9 8 9 11 10 9 8 8 9 10 14 17 16 13 11 7 8 8 9 13 19 16 21 26 31 35 38 36 33 32 33 34 34 33
7 9 9 10 10 10 10 10 8 10 9 9 10 10 9 8 7 8 8 9 11 18 20 17 10 10 9 10 16 14 14 19 24 27 30 31 33 34 34 33 32 31 31
8 8 9 9 10 10 10 10 10 9 10 10 9 10 10 9 8 7 8 8 8 12 17 18 16 13 13 16 19 17 17 23 25 27 27 27 29 31 33 33 33 32 31
8 8 9 9 10 10 11 11 11 11 12 12 10 11 11 11 9 9 9 9 9 9 15 18 16 14 15 16 17 16 17 17 16 23 26 27 27 28 30 31 32 33 33
8 8 9 9 10 11 11 11 12 12 13 12 11 10 11 12 12 11 10 11 11 10 11 18 20 17 16 15 17 17 17 17 15 21 26 27 27 27 27 29 30 31 31
8 9 9 10 11 12 12 10 10 12 12 11 11 11 13 13 14 12 13 13 11 12 9 14 19 17 15 13 15 17 16 15 16 17 22 24 25 25 26 27 27 28 28
9 10 11 11 11 13 12 11 14 14 12 11 10 11 13 14 15 16 15 11 12 14 12 14 17 17 16 12 12 14 15 12 14 14 20 22 23 25 27 27 25 24 25
10 10 11 11 11 12 12 17 16 16 14 14 13 12 13 20 24 20 19 17 17 16 16 17 18 17 16 14 13 13 17 16 14 11 13 14 14 13 13 17 19 21 23
10 11 12 13 14 14 23 27 23 16 15 15 17 17 17 17 22 29 31 30 28 22 20 20 19 20 21 19 17 17 17 18 18 7 11 12 9 13 11 10 17 21 22
11 12 12 13 14 17 26 27 28 20 14 15 16 17 18 19 24 17 24 30 27 32 31 24 23 23 23 22 22 22 20 21 21 11 12 18 12 16 13 15 22 22 23
11 11 12 13 14 17 26 28 29 17 14 15 15 16 17 17 19 23 22 22 21 22 25 22 20 22 22 22 22 23 24 23 22 17 14 18 14 14 12 10 17 21 22
12 11 12 12 14 17 25 27 28 14 14 15 15 16 19 17 28 34 26 25 25 22 27 31 33 31 34 33 28 20 19 19 19 15 10 13 12 10 7 6 10 17 17
11 13 13 11 12 15 23 27 28 14 15 16 15 15 22 25 32 35 25 23 23 23 24 26 25 25 22 23 27 19 17 17 16 13 8 8 8 5 4 2 3 4 7
Wind_Direction
229 224 227 235 239 242 242 244 247 250 252 253 253 249 247 246 249 250 256 259 262 264 264 261 261 261 260 257 252 249 249 250 250 249 249 248 247 247 246 246 245 245 244
227 235 242 239 239 240 242 242 243 250 254 253 256 250 249 247 248 246 246 251 255 258 261 262 260 260 260 261 260 255 251 249 248 248 248 248 248 248 248 248 248 247 247
233 234 248 251 247 243 242 246 248 249 258 256 258 255 253 250 249 247 246 247 249 252 254 257 259 259 259 260 260 260 259 255 252 250 249 249 248 248 247 247 248 248 248
241 241 252 261 255 245 239 248 252 254 258 259 261 261 256 255 252 251 250 250 248 249 251 253 254 255 257 258 258 259 259 259 256 253 252 251 250 249 249 248 248 248 248
247 243 258 268 271 259 254 258 261 250 265 269 267 267 261 256 256 255 252 249 247 247 247 251 250 251 252 255 257 258 258 259 258 256 254 253 251 251 251 251 250 249 249
256 246 260 272 277 275 273 265 268 266 267 273 279 278 272 262 257 254 253 252 249 246 245 246 249 250 250 253 255 257 258 259 258 257 256 255 253 252 252 252 252 251 250
338 309 302 302 301 289 287 284 280 279 277 274 278 280 273 261 258 257 254 252 251 249 245 244 245 245 249 249 250 252 254 256 257 257 256 254 253 253 253 252 252 252 252
35 32 19 5 352 338 330 321 310 296 288 272 262 282 287 270 247 248 250 250 251 250 247 245 243 241 240 241 241 243 246 249 252 253 254 253 253 252 251 250 250 250 250
35 30 24 17 7 4 351 340 337 322 312 301 262 269 290 292 286 250 245 249 249 248 247 246 244 243 242 241 242 242 241 244 248 249 250 250 251 252 251 250 250 249 249
29 23 17 12 6 2 355 349 349 336 329 325 317 286 285 295 299 299 258 254 260 259 257 256 252 248 245 246 244 240 241 243 248 250 250 250 249 249 249 249 249 249 249
20 17 12 7 2 355 347 343 341 337 331 324 322 317 315 313 303 307 305 302 289 275 273 268 265 260 253 249 249 246 244 247 251 254 253 252 250 249 248 248 248 249 248
9 11 5 1 355 350 343 338 332 328 323 321 320 317 318 315 318 314 308 307 303 298 292 286 279 273 265 259 254 250 248 249 253 256 258 257 254 251 249 249 249 249 248
0 0 360 354 351 344 339 336 330 326 320 323 319 315 310 304 308 310 309 308 306 301 290 281 281 287 288 283 278 269 261 256 256 258 260 261 260 257 253 251 251 250 249
351 354 353 350 346 343 342 338 330 324 324 320 320 315 311 307 307 309 309 313 311 306 300 290 285 286 297 300 295 291 286 272 264 262 263 263 262 261 259 254 252 251 249
355 352 346 343 340 338 338 335 328 323 324 322 316 310 309 308 307 304 306 311 309 309 305 304 302 297 299 298 294 296 291 286 279 273 267 262 258 257 258 258 256 253 250
346 341 341 337 335 333 334 331 326 324 328 324 319 319 319 317 313 310 308 305 298 298 299 299 303 306 306 304 300 298 295 290 286 282 277 269 261 256 254 254 254 254 253
339 339 337 335 334 333 332 328 324 327 326 321 322 326 323 320 317 313 305 300 294 290 294 298 301 306 307 305 303 300 296 292 288 282 280 276 270 263 257 254 252 251 251
336 335 332 331 331 332 326 321 321 325 319 318 320 321 318 317 307 302 299 295 291 285 289 300 302 302 299 299 299 298 298 295 290 287 284 280 276 272 266 260 256 252 250
336 337 336 334 332 330 324 317 316 317 313 312 313 314 315 311 307 304 300 296 293 299 294 294 295 296 295 296 298 297 292 290 290 290 290 288 283 279 274 268 262 257 251
337 337 334 330 328 326 320 322 323 318 315 312 308 308 310 309 308 309 308 303 309 307 298 293 293 294 293 292 290 295 296 290 290 292 291 288 285 279 273 270 266 260 254
337 328 329 329 328 327 327 328 325 322 320 317 315 310 308 311 312 313 313 314 312 306 305 302 298 296 295 295 292 291 290 290 283 277 283 283 281 276 273 270 266 261 255
330 331 331 330 329 330 326 328 327 320 318 318 317 315 312 310 312 317 314 311 310 308 306 301 298 294 293 292 290 287 286 288 288 258 264 274 274 279 276 266 263 259 256
330 330 327 324 320 319 325 326 325 324 316 313 310 311 312 314 316 307 308 311 309 304 300 296 293 291 290 288 287 285 281 280 280 275 275 277 268 270 269 265 263 256 254
326 321 318 315 314 317 324 325 324 324 312 306 306 306 307 308 311 314 313 311 306 303 299 298 292 289 288 286 283 283 284 282 278 270 255 266 264 263 263 260 261 256 255
320 314 313 312 313 316 322 324 326 317 312 308 307 309 312 311 312 318 318 313 310 308 307 304 301 299 297 297 296 294 287 282 280 274 249 254 259 256 256 259 259 253 243
310 312 311 310 308 310 316 325 325 318 316 315 314 312 314 316 317 320 320 316 313 311 310 310 308 304 300 297 299 296 295 292 288 283 257 244 251 231 241 279 291 246 202
Height
1499 1499 1498 1498 1497 1496 1496 1495 1493 1492 1491 1489 1487 1486 1484 1483 1481 1479 1478 1478 1477 1476 1475 1475 1475 1476 1477 1477 1476 1475 1474 1474 1473 1473 1474 1474 1474 1474 1474 1475 1475 1475 1475
1497 1497 1496 1495 1494 1494 1492 1491 1489 1488 1486 1484 1482 1481 1479 1478 1476 1474 1472 1471 1470 1469 1468 1467 1467 1467 1467 1468 1468 1468 1467 1466 1466 1465 1465 1466 1466 1466 1466 1467 1467 1468 1468
1495 1494 1493 1492 1491 1490 1488 1486 1484 1482 1480 1478 1476 1474 1472 1471 1468 1467 1465 1463 1462 1461 1460 1459 1457 1457 1457 1457 1458 1458 1458 1458 1457 1457 1457 1457 1457 1457 1457 1458 1458 1459 1460
1492 1491 1489 1488 1487 1485 1483 1481 1479 1476 1474 1472 1469 1467 1464 1462 1460 1458 1456 1454 1453 1451 1450 1449 1448 1447 1446 1445 1446 1447 1447 1447 1447 1447 1447 1447 1447 1448 1448 1448 1449 1449 1450
1487 1486 1485 1483 1482 1480 1478 1475 1473 1470 1467 1465 1462 1459 1456 1453 1451 1450 1447 1445 1444 1441 1439 1438 1437 1436 1435 1434 1434 1434 1434 1435 1435 1435 1436 1436 1436 1437 1438 1438 1438 1439 1440
1482 1481 1480 1479 1477 1475 1472 1470 1467 1465 1462 1459 1455 1451 1449 1446 1443 1440 1438 1436 1433 1431 1429 1427 1426 1423 1423 1422 1421 1421 1421 1421 1421 1422 1422 1423 1424 1425 1426 1426 1427 1427 1428
1478 1477 1475 1474 1472 1470 1468 1465 1462 1459 1456 1454 1449 1443 1439 1438 1435 1433 1430 1427 1424 1422 1420 1418 1416 1414 1411 1410 1410 1409 1408 1407 1407 1407 1408 1409 1410 1411 1412 1413 1414 1415 1416
1476 1474 1472 1470 1468 1466 1463 1461 1457 1453 1450 1449 1444 1438 1431 1427 1424 1423 1421 1418 1415 1413 1410 1408 1406 1404 1402 1400 1399 1399 1398 1396 1395 1394 1394 1394 1395 1396 1397 1399 1400 1401 1403
1475 1473 1471 1468 1466 1463 1460 1457 1453 1449 1445 1443 1441 1437 1429 1419 1415 1413 1411 1409 1406 1402 1400 1398 1396 1394 1392 1390 1388 1387 1387 1386 1384 1383 1382 1381 1381 1381 1383 1385 1386 1388 1389
1474 1472 1469 1467 1464 1461 1457 1454 1450 1446 1442 1438 1435 1432 1428 1421 1414 1403 1400 1400 1398 1394 1391 1388 1385 1383 1381 1379 1377 1375 1375 1374 1373 1372 1370 1369 1368 1368 1369 1371 1373 1374 1376
1473 1470 1467 1464 1461 1457 1454 1450 1447 1443 1439 1434 1430 1425 1421 1416 1412 1405 1394 1390 1389 1387 1384 1381 1377 1374 1371 1368 1365 1363 1362 1362 1361 1360 1359 1357 1356 1356 1357 1358 1359 1361 1362
1471 1467 1464 1460 1457 1453 1450 1446 1442 1438 1434 1430 1425 1420 1416 1411 1406 1401 1393 1384 1379 1375 1374 1372 1369 1366 1362 1359 1355 1352 1350 1348 1348 1347 1346 1345 1344 1344 1344 1345 1346 1348 1350
1467 1464 1460 1456 1453 1449 1445 1441 1437 1433 1428 1424 1419 1415 1410 1406 1402 1397 1390 1381 1373 1366 1363 1361 1360 1357 1354 1350 1346 1343 1339 1337 1335 1334 1333 1332 1332 1332 1332 1333 1334 1335 1337
1465 1461 1457 1453 1449 1445 1440 1436 1431 1427 1422 1417 1413 1409 1404 1399 1396 1391 1386 1379 1368 1358 1353 1349 1349 1347 1344 1341 1337 1334 1330 1327 1324 1321 1320 1318 1318 1318 1319 1320 1321 1322 1323
1461 1457 1453 1449 1445 1440 1435 1430 1425 1420 1416 1411 1406 1402 1398 1393 1389 1385 1380 1376 1370 1359 1346 1339 1337 1335 1333 1330 1326 1323 1319 1315 1313 1310 1307 1305 1304 1303 1304 1305 1306 1308 1310
1457 1453 1449 1444 1440 1435 1430 1425 1420 1414 1409 1404 1399 1395 1390 1386 1381 1377 1373 1368 1364 1358 1346 1333 1327 1323 1321 1318 1315 1312 1307 1304 1300 1297 1295 1293 1291 1290 1289 1290 1291 1293 1294
1453 1449 1444 1439 1435 1430 1425 1420 1414 1409 1403 1398 1393 1388 1383 1379 1373 1368 1364 1359 1354 1350 1341 1327 1321 1315 1310 1306 1303 1300 1297 1292 1288 1285 1283 1281 1279 1277 1276 1276 1276 1278 1279
1449 1445 1440 1435 1430 1425 1420 1415 1409 1403 1398 1392 1387 1381 1376 1371 1365 1360 1354 1348 1343 1339 1333 1322 1310 1304 1299 1296 1292 1288 1284 1281 1277 1273 1271 1269 1266 1265 1264 1263 1263 1263 1264
1445 1441 1436 1431 1425 1420 1415 1409 1404 1398 1392 1387 1381 1375 1368 1362 1355 1350 1344 1339 1334 1329 1324 1316 1304 1295 1289 1286 1282 1276 1273 1269 1265 1262 1259 1257 1254 1252 1251 1251 1250 1250 1251
1441 1436 1432 1427 1421 1415 1410 1404 1398 1391 1385 1380 1374 1368 1361 1355 1349 1342 1336 1331 1326 1319 1313 1306 1296 1287 1281 1276 1273 1267 1260 1256 1253 1250 1247 1245 1242 1240 1239 1238 1238 1238 1238
1437 1432 1427 1421 1416 1410 1404 1398 1392 1385 1379 1372 1366 1360 1355 1349 1344 1338 1332 1324 1318 1311 1304 1296 1288 1280 1272 1267 1263 1258 1251 1244 1239 1240 1236 1233 1231 1228 1226 1226 1225 1225 1226
1432 1427 1422 1416 1411 1405 1399 1393 1387 1380 1373 1366 1359 1352 1346 1341 1336 1330 1324 1318 1312 1305 1296 1288 1279 1272 1264 1259 1254 1248 1243 1236 1227 1228 1227 1221 1221 1217 1214 1213 1213 1213 1213
1427 1422 1417 1411 1405 1399 1393 1386 1380 1374 1367 1360 1353 1346 1340 1334 1329 1321 1314 1308 1301 1295 1290 1282 1272 1263 1256 1250 1245 1238 1232 1226 1218 1216 1217 1208 1207 1204 1202 1201 1201 1201 1201
1423 1417 1411 1405 1399 1392 1386 1379 1373 1367 1360 1353 1347 1341 1334 1327 1321 1315 1306 1298 1289 1282 1276 1269 1262 1254 1247 1240 1235 1228 1220 1213 1206 1203 1203 1196 1194 1192 1190 1189 1190 1190 1190
1417 1411 1405 1399 1392 1386 1380 1374 1368 1360 1353 1347 1341 1335 1329 1322 1314 1308 1300 1289 1279 1269 1263 1257 1251 1244 1237 1230 1224 1217 1209 1202 1193 1189 1189 1186 1182 1181 1180 1178 1179 1180 1181
1412 1405 1399 1394 1387 1380 1374 1369 1364 1356 1349 1341 1334 1328 1322 1315 1308 1301 1293 1283 1271 1261 1253 1244 1237 1230 1224 1218 1212 1207 1199 1192 1184 1178 1176 1176 1172 1172 1170 1169 1170 1172 1174